Volver al catálogo

STARLINK-33992

ActivoComunicacionesVLEO
NORAD 64026·PAYLOAD·🇺🇸 United States

Lanzado May 16, 2025 desde Vandenberg Space Force Base

Loading…

Próximos Pases (próximas 24 horas)

TLE

ActualizadoSource: CelesTrak SupGP

Época: Sep 14, 2026, 20:37 UTC

1 64026C 25102E   26257.85951389 -.00023032  00000+0 -80149-3 0  2571
2 64026  70.0010 355.9571 0003214 272.9843 190.4351 15.29578588    10

Sigue STARLINK-33992 en tiempo real con AllMySat

Download on the App Store